Zurück zum Katalog

SL-19 R/B

AktivPO
NORAD 37155·ROCKET BODY·🇷🇺 Russia

Gestartet Sep 8, 2010 von Plesetsk Cosmodrome

Loading…

Nächste Überflüge (nächste 24 Stunden)

TLE

AktuellSource: Space-Track

Epoche: Sep 14, 2026, 13:20 UTC

1 37155U 10043D   26257.55578762  .00000018  00000-0  33503-4 0  9993
2 37155  82.4579 117.3100 0198257 321.5366  51.4670 12.78572026747572

Verfolge SL-19 R/B in Echtzeit mit AllMySat

Download on the App Store